This is the latest recevied weather packets stored in our database for station/object K4MGY-13. If no packets are shown the sender has not sent any weather packets the latest 10 day(s).
| Time | Temp. | Humidity | Pressure | Rain* | Wind** | Luminosity | Snow |
|---|---|---|---|---|---|---|---|
| 1777820916 | 13.89° C | 41% | 1022.1 hPa | 0 mm | - | - | - |
| 1777820615 | 13.89° C | 41% | 1022.3 hPa | 0 mm | - | - | - |
| 1777820016 | 13.33° C | 39% | 1022.4 hPa | 0 mm | - | - | - |
| 1777819716 | 13.89° C | 41% | 1022.4 hPa | 0 mm | - | - | - |
| 1777819386 | 13.89° C | 38% | 1022.2 hPa | 0 mm | - | - | - |
| 1777819086 | 13.89° C | 46% | 1022 hPa | 0 mm | - | - | - |
| 1777818758 | 13.33° C | 47% | 1022 hPa | 0 mm | - | - | - |
| 1777818456 | 13.33° C | 48% | 1022 hPa | 0 mm | - | - | - |
| 1777817855 | 11.67° C | 59% | 1022.2 hPa | 0 mm | - | - | - |
| 1777817557 | 11.67° C | 63% | 1022.4 hPa | 0 mm | - | - | - |
| 1777816328 | 10.56° C | 69% | 1022.5 hPa | 0 mm | - | - | - |
| 1777815725 | 10° C | 72% | 1022.4 hPa | 0 mm | - | - | - |
| 1777815396 | 9.44° C | 76% | 1022.5 hPa | 0 mm | - | - | - |
| 1777815068 | 9.44° C | 78% | 1022.7 hPa | 0 mm | - | - | - |
| 1777814465 | 8.89° C | 77% | 1022.5 hPa | 0 mm | - | - | - |
| 1777814140 | 8.89° C | 81% | 1022.7 hPa | 0 mm | - | - | - |
| 1777813836 | 8.33° C | 82% | 1022.5 hPa | 0 mm | - | - | - |
| 1777813235 | 8.33° C | 85% | 1022.5 hPa | 0 mm | - | - | - |
| 1777812335 | 7.78° C | 87% | 1022.7 hPa | 0 mm | - | - | - |
| 1777812038 | 7.22° C | 88% | 1022.7 hPa | 0 mm | - | - | - |
| 1777811738 | 7.22° C | 90% | 1022.9 hPa | 0 mm | - | - | - |
| 1777811435 | 6.67° C | 92% | 1022.7 hPa | 0 mm | - | - | - |
| 1777811105 | 6.67° C | 95% | 1022.7 hPa | 0 mm | - | - | - |
| 1777810805 | 6.11° C | 96% | 1023 hPa | 0 mm | - | - | - |
| 1777810585 | 6.11° C | 96% | 1022.5 hPa | 0 mm | - | - | - |
* Rain latest hour (hover to see other rain measurements)
** Current wind speed in m/s (hover to see current wind gust speed)